STARLINK-11607, 63140

Orbit data source: Space-Track

STARLINK-11607, 63140 is a payload satellite owned by SpaceX/Seattle (US) in LEO that was launched on Mon, 03 Mar 2025 UTC via an FALCON 9 launch vehicle from the Air Force Eastern Test Range (AFETR). Payload-class satellites include a variety of spacecraft equipped with specific instruments for various scientific and technological missions. These include communications satellites like Starlink; space stations such as the ISS; scientific satellites like the Hubble; Earth observation satellites from companies like Planet Labs, Umbra, and HawkEye 360; GPS; miniature CubeSats for education and research; and military/defense satellites.

Loading next visibility...
Identifier
63140, 2025-043J
Orbit
LEO
Last TLE update
19 hours ago
Origin
Manufacturer
SpaceX/Seattle
Mission
Operational Commercial Communications
Bus & Motor
STARLINK V2M, Unknown motor
Mass
730 kg wet, ~700 kg dry
Launch date (UTC)
2025-03-03 (4 months ago)
Launch vehicle
FALCON 9
Launch site
Air Force Eastern Test Range (AFETR)
Object type
Payload
Rocket body
Debris
Shape & HBR
Box + 2 Pan, 29 m
Radar Cross Section
36.964 m², Large (>1 m²)

Expand to show TLE details & history

TLE from 19 hours ago
0 STARLINK-11607
1 63140U 25043J   25181.76401195  .00189421  00000-0  14441-2 0  9999
2 63140  43.0014 328.9836 0002879 268.6287  91.4250 15.70874321 19854
Epoch: 2025-06-30T18:20Z
TLE epoch observation values (Epoch: 2025-06-30T18:20:10.632Z)
Latitude
-0.00008°
Longitude
134.87008°
Altitude
356.217 km
Speed
7.697 km/s
True Right ascension
21h 55m 56s
True Declination
0° 00' 00"
Sunlit
Object was in full shadow at epoch
Visualization orbit readout
Latitude
-11.84505°
Longitude
-37.01932°
Altitude
357.163 km
Speed
7.696 km/s
Apparent Right ascension
11h 35m 53s
Apparent Declination
-26° 42' 59"
Sunlit
Object is in daylight
Visualization observer readout
Local Sidereal Time
01:07:52
Azimuth
62.357° ENE
Elevation
-66.798°
Doppler factor
1
Orbital elements
Apogee altitude
360.318 km
Perigee altitude
356.439 km
Semi-major axis
6,736.515 km
Eccentricity
0.00029
Inclination
43.0014°
RAAN
328.9836°
Arg. of periapsis
268.6287°
True anomaly
Unknown
Mean anomaly
91.425°
Eccentric anomaly
Unknown
Mean motion
3.92546 °/min
Orbital period
91.71 mins
BSTAR
0.0014441
Loading maneuver chart data...
Loading SW <> Apogee altitude chart data...
Loading historical data...
Loading historical data...
Loading historical data...
Loading historical data...
Loading historical data...
Loading historical data...
Loading historical data...

STARLINK-11607 Visibility forecast

Observer location: undefined°, undefined°

Span
Click to sort rows by Start time (UTC) header in descending order
Start Az.
Max El. time (UTC)
Max El. Az.
Max El.
End time (UTC)
End Az.
4 mins2025-07-01 14:26:55.976Z261.606° W2025-07-01 14:28:55.976Z343.359° N43.545°2025-07-01 14:30:55.976Z67.363° ENE
4 mins2025-07-01 16:03:55.976Z304.431° NW2025-07-01 16:04:55.976Z342.463° N33.553°2025-07-01 16:07:55.976Z75.399° E
4 mins2025-07-01 17:39:55.976Z287.258° WNW2025-07-01 17:41:55.976Z114.161° SE40.694°2025-07-01 17:43:55.976Z110.414° ESE
|